www.pogodaiklimat.ru

Погода и климат >> Архив погоды >> Россия >> Магаданская область >> Сусуман


ПОГОДА в Сусумане

  • Прогноз погоды в Сусумане
  • Монитор погоды в Сусумане
  • Климат города

АРХИВ ПОГОДЫ в Сусумане

Время (UTC), дата Ветер
(напр.,м/с)
 
Видим.   Явления Облачность Т
(С)
Тd
(С)
f
(%)
Тe
(С)
Тes
(С)
Комфортность P
(гПа)
Po
(гПа)
Тmin
(С)
Tmax
(С)
R
(мм)
R24
(мм)
S
(см)
06 17.08 ЮЗ 3 50 км 9/3 1000 м
[Cu hum Ci fib]
+27.3 +9.9 34 +28 +30 жарко 1004.8 933.4
09 17.08 СВ 2 50 км 9/0
[Cs]
+22.8 +11.3 48 +25 +25 комфорт 1005.8 933.3 +28.0
12 17.08 ЮВ 1 50 км 8/0
[Ci fib]
+12.0 +9.4 84 +12 +12 1009.4 934.1
15 17.08 В 1 50 км 4/0
[Ci fib]
+7.9 +7.0 94 +7 +7 1010.8 934.2
18 17.08 штиль 0 50 км 3/0
[Ci fib]
+4.4 +4.0 97 +3 +3 1012.0 934.4
21 17.08 штиль 0 50 км {туман} 3/1 1000 м
[Sc Ci fib]
+12.3 +9.2 81 +12 +14 1009.5 934.1 +4.4
00 18.08 ЮЗ 2 50 км {туман} 6/3 1000 м
[Sc Ci fib]
+21.3 +12.6 58 +24 +28 комфорт 1005.5 932.7
03 18.08 З 4 50 км 9/3 1000 м
[Cb cap Ac trans Ci fib]
+25.5 +12.7 45 +27 +30 жарко 1002.3 930.8
06 18.08 Ю 4 50 км 8/4 1000 м
[Cb cap Ac trans Ci fib]
+26.3 +10.0 36 +27 +28 жарко 1001.3 929.9
09 18.08 штиль 0
{12}
50 км в посл. час ливневой дождь 9/9 960 м
[Cb cap]
+15.9 +14.5 91 +16 +16 1006.1 932.0 +27.3 0.9
12 18.08 СВ 2 50 км {ливн. осадки} 8/8 1020 м
[Cb cap]
+13.6 +13.1 97 +13 +13 1007.8 933.0
15 18.08 С 4 50 км 8/6 900 м
[Cb cap Ci fib]
+12.5 +10.6 88 +11 +11 1009.6 934.4
18 18.08 С 4 50 км 10/10 1140 м
[Cb cap]
+11.7 +9.4 86 +9 +9 1010.3 934.8
21 18.08 С 4 50 км 10/10 800 м
[Cb cap]
+12.3 +9.3 82 +10 +10 1010.6 935.3 +11.7
00 19.08 С 3 50 км 9/9 1080 м
[Cb cap]
+15.5 +10.5 72 +15 +16 1009.4 934.9
03 19.08 С 4 50 км 4/4 1000 м
[Cb cap]
+18.8 +11.3 62 +19 +23 1006.6 933.2
06 19.08 С 3 50 км 4/4 1000 м
[Cb cap]
+20.3 +12.8 62 +23 +25 комфорт 1003.3 930.4
09 19.08 Ю 2 50 км 8/8 1140 м
[Cb cap]
+18.6 +11.8 65 +20 +20 1002.8 929.6 +22.1
12 19.08 Ю 2 50 км 10/10 1020 м
[Cb cap]
+15.2 +11.3 78 +15 +15 1003.8 929.7
15 19.08 ЮЗ 3 50 км 10/10 1050 м
[Cb cap]
+14.6 +10.5 76 +14 +14 1003.8 929.5
18 19.08 ЮЗ 2 50 км 10/10 1000 м
[Cb cap]
+12.4 +9.9 85 +11 +11 1004.9 930.0
21 19.08 ЮЗ 3 20 км слабый ливневой дождь 10/10 840 м
[Cb cap]
+12.7 +10.7 88 +11 +11 1005.5 930.6 +11.5 0.1
00 20.08 Ю 2 10 км слабый ливневой дождь 10/10 540 м
[Cb cap]
+12.9 +11.8 93 +12 +12 1006.1 931.3
03 20.08 ЮВ 1 10 км ливневой дождь 10/10 600 м
[Cb cap]
+13.2 +12.0 92 +13 +13 1005.9 931.2
06 20.08 ЮЗ 1 50 км {ливн. осадки} 10/10 750 м
[Cb cap]
+14.8 +11.2 79 +15 +15 1005.2 930.9
09 20.08 Ю 1 50 км 10/10 930 м
[Cb cap]
+12.5 +11.4 93 +12 +12 1007.1 932.1 +15.0 7
12 20.08 С 2 10 км ливневой дождь 10/10 800 м
[Cb cap]
+10.3 +10.0 98 +9 +9 1009.1 933.4
15 20.08 С 4 10 км ливневой дождь 10/10 800 м
[Cb cap]
+8.2 +7.7 97 +5 +5 1010.7 934.2
18 20.08 С 3 10 км ливневой дождь 10/10 800 м
[Cb cap]
+7.7 +7.1 96 +5 +5 1011.7 935.0
21 20.08 С 2 10 км ливневой дождь 10/10 540 м
[Cb cap]
+8.2 +7.5 95 +6 +6 1013.1 936.4 +7.6 17
00 21.08 СВ 4 50 км в посл. час ливневой дождь 9/9 900 м
[Cb cap]
+11.2 +7.4 77 +9 +9 1012.8 936.9
03 21.08 СВ 4 20 км слабый ливневой дождь 10/10 1170 м
[Cb cap]
+11.2 +7.9 80 +9 +9 1013.7 937.8
06 21.08 СВ 4 50 км {ливн. осадки} 10/4 1000 м
[Cb cap Cs]
+12.0 +6.9 71 +10 +11 1014.2 938.4
09 21.08 СВ 3 50 км 9/6 1230 м
[Sc Ci fib]
+11.5 +6.9 73 +10 +10 1015.0 939.0 +12.5 0.6
12 21.08 СВ 2 50 км 8/3 1000 м
[Sc Ci fib]
+7.4 +5.9 90 +5 +5 1017.3 940.1
15 21.08 ЮВ 1 50 км 8/0
[Ci fib]
+4.0 +3.7 98 +2 +2 1018.7 940.4
18 21.08 штиль 0 50 км 6/0
[Ci fib]
+1.7 +1.5 99 0 0 1019.7 940.7
21 21.08 Ю 1 10 км туман местами 8/3 1000 м
[Sc Ci fib]
+4.9 +4.7 99 +3 +4 1018.9 940.9 +0.6
00 22.08 З 1 50 км {туман} 4/3 1000 м
[Sc Ci fib]
+13.3 +6.5 63 +14 +19 1015.6 940.0
03 22.08 ЮЗ 4 50 км 4/4 1000 м
[Cu Sc]
+16.1 +8.0 59 +15 +19 1013.3 938.6
06 22.08 ЮЗ 3 50 км 3/3 1000 м
[Sc Ci fib]
+17.5 +7.9 53 +18 +20 1011.4 937.3
09 22.08 ЮЗ 2 50 км 1/1 1000 м
[Sc]
+14.9 +8.2 64 +15 +15 1011.7 936.9 +17.8
12 22.08 ЮЗ 2 50 км ясно +6.7 +5.5 92 +4 +4 1014.3 937.1
15 22.08 ЮЗ 2 50 км ясно +3.5 +3.1 97 0 0 1015.1 937.0
18 22.08 штиль 0 50 км туман местами ясно +0.8 +0.6 99 -1 -1 1015.8 936.8
21 22.08 СВ 1 500 м туман ясно +2.6 +2.5 99 +1 +3 1014.9 936.5 +0.1
00 23.08 З 1 50 км в посл. час туман 4/1 1000 м
[Cu hum Ci fib]
+11.4 +7.3 76 +11 +18 1011.3 935.5
03 23.08 ЮЗ 3 50 км 6/3 1000 м
[Cu hum Ci fib]
+17.9 +6.6 48 +18 +22 1007.8 934.0
06 23.08 З 3 50 км 6/3 1000 м
[Cu Sc Ci fib]
+19.6 +6.3 42 +21 +22 комфорт 1005.6 932.3
09 23.08 ЮЗ 1 50 км 3/1 1000 м
[Sc Ci fib]
+17.1 +8.6 57 +18 +18 1006.0 932.1 +19.7
12 23.08 ЮЗ 2 50 км ясно +7.6 +6.3 91 +5 +5 1009.4 932.9
15 23.08 Ю 2 50 км ясно +3.6 +3.3 98 0 0 1010.9 933.1
18 23.08 Ю 1 50 км туман местами 3/0
[Ci fib]
+0.2 -0.0 99 -2 -2 1012.3 933.4
21 23.08 штиль 0 50 км в посл. час туман 8/0
[Ci fib]
+4.5 +4.0 97 +3 +5 1011.4 933.8 -0.6
00 24.08 ЮЗ 3 50 км {туман} 3/0
[Ci fib]
+15.0 +6.9 58 +14 +19 1007.6 933.0
03 24.08 ЮЗ 4 50 км 3/0
[Ci fib]
+18.4 +6.4 45 +18 +23 1005.2 931.7

 

Местоположение метеостанции Сусуман (Магаданская область, Россия): широта 62.78 долгота 148.10 высота над уровнем моря 655 м.

В архиве по умолчанию представлена погода в Сусумане за последнюю неделю. Архивные данные за месяц целиком и за предыдущие месяцы, начиная с января 2011 года, Вы можете получить, выбрав интересующий диапазон дат из раскрывающегося списка и нажав кнопку "Ввод!".

Внимание! Время в таблицах - всемирное. Для получения местного времени необходимо прибавить поправку, которая в Сусумане равна 11 ч.

Смотрите также архив погоды в соседних городах и на ближайших метеорологических станциях:

Погода в Ягодной (Магаданская область, Россия) (82 км)
Погода в Озере Джека Лондона (Магаданская область, Россия) (106 км)
Погода в Колымской (Магаданская область, Россия) (107 км)
Погода в Совхозе Эльген (Магаданская область, Россия) (127 км)
Погода в Усть-Бохапче (Магаданская область, Россия) (149 км)
Погода в Делянкире (Якутия, Россия) (171 км)
Погода в Усть-Омчуге (Магаданская область, Россия) (201 км)
Погода в Среднекане (Магаданская область, Россия) (218 км)
Погода в Сеймчане (Магаданская область, Россия) (219 км)
Погода в Оймяконе (Якутия, Россия) (258 км)

Пояснения к столбцам:

Ветер - указаны скорость ветра в м/с - средняя за 10 мин, порывы в срок и между сроками (в фигурных скобках) и направление, откуда дует ветер: С - северный, СВ - северо-восточный, В - восточный, ЮВ - юго-восточный, Ю - южный, ЮЗ - юго-западный, З - западный, СЗ - северо-западный.
Видимость - горизонтальная дальность видимости в метрах или километрах. При видимости от 1 до 10 км при отсутствии осадков обычно наблюдается дымка, при ухудшении видимости до 1 км и менее - туман. В сухую погоду видимость может ухудшаться дымом, пылью или мглою.
Явления - указаны атмосферные явления, наблюдавшиеся в срок или в последний час перед сроком; фигурными скобками обозначены явления, наблюдавшиеся между сроками (за 1-3 часа до срока); квадратными скобками обозначены град или гололедные отложения с указанием их диаметра в мм.
Облачность - указаны через наклонную черту общая и нижняя облачность в баллах и высота нижней границы облаков в метрах; квадратными скобками обозначены формы облаков: Ci - перистые, Cs - перисто-слоистые, Cc - перисто-кучевые, Ac - высококучевые, As - высокослоистые, Sc - слоисто-кучевые, Ns - слоисто-дождевые, Cu - кучевые, Cb - кучево-дождевые. Подробнее классификацию облаков см. в Атласе облаков (PDF).
T - Температура воздуха - температура, измеренная на высоте 2 м над землей.
Td - Температура точки росы - температура, при понижении до которой содержащийся в воздухе водяной пар достигнет насыщения.
f - Относительная влажность воздуха - влажноcть воздуха, измеренная на высоте 2 м над землей.
Te - Эффективная температура - температура, которую ощущает одетый по сезону человек в тени. Характеристика душности погоды. При расчете учитывается влияние влажности воздуха и скорости ветра на теплоощущения человека.
Tes - Эффективная температура на солнце - температура, которую ощущает человек, с поправкой на солнечный нагрев. Характеристика знойности погоды. Зависит от высоты солнца над горизонтом, облачности и скорости ветра. Ночью, в пасмурную погоду, а также при ветре 12 м/с и более поправка равна нулю.
P - Атмосферное давление - приведенное к уровню моря атмосферное давление.
Po - Атмосферное давление - измеренное на уровне метеостанции атмосферное давление.
Tmin - Минимальная температура - минимум температуры воздуха на высоте 2 м над землей.
Tmax - Максимальная температура - максимум температуры воздуха на высоте 2 м над землей.
R - Количество осадков - Количество выпавших осадков за период времени, мм. При наведении курсора мыши на число - период времени, за который выпало указанное количество осадков.
R24 - Количество осадков - Количество выпавших осадков за 24 часа, мм.
S - Снежный покров - Высота снежного покрова, см. При наведении курсора мыши на число - состояние снежного покрова и степень покрытия местности в баллах.